Tracking 29892 objects as of 21-Nov-2024
HD Live streaming from Space Station
objects crossing your sky now

STARLINK-2459

Track STARLINK-2459 now!
10-day predictions
STARLINK-2459 is classified as:


NORAD ID: 48119
Int'l Code: 2021-027AD
Perigee: 553.6 km
Apogee: 554.7 km
Inclination: 53.1 °
Period: 95.6 minutes
Semi major axis: 6925 km
RCS: Unknown
Launch date: April 7, 2021
Source: United States (US)
Launch site: AIR FORCE EASTERN TEST RANGE (AFETR)
Your satellite tracking list
Your tracking list is empty




NASA's NSSDC Master Catalog

Two Line Element Set (TLE):
1 48119U 21027AD  24325.81517841 -.00027178  00000-0 -18097-2 0  9990
2 48119  53.0531 118.9095 0000840  87.0572 273.0513 15.06460571200879
Source of the keplerian elements: AFSPC